| time (UTC) | temp F | wind direction | speed MPH | gust MPH | rain 1hr in | rain 24hr in | rain mn in | humidity % | barometer mb |
| 20260902133155 | 80 | 204 | 0.0 | 2.0 | 0.00 | 0.00 | 0.00 | 87 | 1000.2 |
| 20260902130154 | 77 | 48 | 0.0 | 0.0 | 0.00 | 0.00 | 0.00 | 89 | 1000.3 |
| 20260902123156 | 75 | 48 | 0.0 | 0.0 | 0.00 | 0.00 | 0.00 | 89 | 1000.4 |
| 20260902121654 | 75 | 172 | 0.0 | 1.0 | 0.00 | 0.00 | 0.00 | 88 | 1000.1 |
| 20260902120153 | 74 | 64 | 0.0 | 0.0 | 0.00 | 0.00 | 0.00 | 89 | 1000.0 |
| 20260902114657 | 74 | 64 | 0.0 | 0.0 | 0.00 | 0.00 | 0.00 | 88 | 999.7 |
| 20260902113156 | 74 | 64 | 0.0 | 0.0 | 0.00 | 0.00 | 0.00 | 88 | 999.4 |
| 20260902111652 | 74 | 64 | 0.0 | 0.0 | 0.00 | 0.00 | 0.00 | 88 | 999.1 |
| 20260902103156 | 75 | 64 | 0.0 | 0.0 | 0.00 | 0.00 | 0.00 | 87 | 998.8 |
| 20260902101656 | 75 | 64 | 0.0 | 0.0 | 0.00 | 0.00 | 0.00 | 87 | 998.8 |
| 20260902100157 | 75 | 64 | 0.0 | 0.0 | 0.00 | 0.00 | 0.00 | 87 | 998.6 |
| 20260902094658 | 75 | 64 | 0.0 | 0.0 | 0.00 | 0.00 | 0.00 | 86 | 998.6 |
| 20260902090158 | 76 | 64 | 0.0 | 0.0 | 0.00 | 0.00 | 0.00 | 85 | 998.2 |
| 20260902084656 | 76 | 64 | 0.0 | 0.0 | 0.00 | 0.00 | 0.00 | 86 | 998.2 |
| 20260902083156 | 76 | 64 | 0.0 | 0.0 | 0.00 | 0.00 | 0.00 | 85 | 998.2 |
| 20260902081655 | 76 | 64 | 0.0 | 0.0 | 0.00 | 0.00 | 0.00 | 85 | 998.1 |
| 20260902080158 | 77 | 64 | 0.0 | 0.0 | 0.00 | 0.00 | 0.00 | 85 | 998.1 |
| 20260902074658 | 77 | 64 | 0.0 | 0.0 | 0.00 | 0.00 | 0.00 | 86 | 998.2 |
| 20260902073155 | 77 | 64 | 0.0 | 0.0 | 0.00 | 0.00 | 0.00 | 85 | 998.2 |
| 20260902071656 | 78 | 64 | 0.0 | 0.0 | 0.00 | 0.00 | 0.00 | 85 | 998.0 |
| 20260902070155 | 78 | 64 | 0.0 | 0.0 | 0.00 | 0.00 | 0.00 | 85 | 998.2 |
| 20260902060155 | 79 | 64 | 0.0 | 0.0 | 0.00 | 0.00 | 0.00 | 84 | 998.1 |
| 20260902054656 | 79 | 64 | 0.0 | 0.0 | 0.00 | 0.00 | 0.00 | 83 | 998.2 |
| 20260902053156 | 79 | 64 | 0.0 | 0.0 | 0.00 | 0.00 | 0.00 | 82 | 998.2 |
| 20260902051656 | 80 | 64 | 0.0 | 0.0 | 0.00 | 0.00 | 0.00 | 81 | 998.3 |
| 20260902050156 | 80 | 64 | 0.0 | 0.0 | 0.00 | 0.00 | 0.00 | 80 | 998.3 |
| 20260902040158 | 81 | 64 | 0.0 | 0.0 | 0.00 | 0.00 | 0.00 | 75 | 998.6 |
| 20260902034655 | 82 | 64 | 0.0 | 0.0 | 0.00 | 0.00 | 0.00 | 74 | 998.6 |
| 20260902033158 | 82 | 64 | 0.0 | 0.0 | 0.00 | 0.00 | 0.00 | 73 | 998.4 |
| 20260902031654 | 83 | 64 | 0.0 | 0.0 | 0.00 | 0.00 | 0.00 | 71 | 998.6 |
| 20260902030157 | 83 | 64 | 0.0 | 0.0 | 0.00 | 0.00 | 0.00 | 70 | 998.6 |
| 20260902021655 | 85 | 64 | 0.0 | 0.0 | 0.00 | 0.00 | 0.00 | 66 | 998.2 |
| 20260902020154 | 85 | 64 | 0.0 | 0.0 | 0.00 | 0.00 | 0.00 | 66 | 998.1 |
| 20260902014655 | 86 | 64 | 0.0 | 0.0 | 0.00 | 0.00 | 0.00 | 65 | 998.1 |
| 20260902010154 | 88 | 64 | 0.0 | 0.0 | 0.00 | 0.00 | 0.00 | 64 | 997.8 |
| 20260902004655 | 89 | 64 | 0.0 | 0.0 | 0.00 | 0.00 | 0.00 | 61 | 997.8 |
| 20260902003155 | 91 | 64 | 0.0 | 0.0 | 0.00 | 0.00 | 0.00 | 59 | 997.6 |
| 20260902000154 | 94 | 64 | 0.0 | 0.0 | 0.00 | 0.00 | 0.00 | 54 | 997.7 |
| 20260901233155 | 97 | 64 | 0.0 | 1.0 | 0.00 | 0.00 | 0.00 | 49 | 997.7 |
| 20260901231657 | 98 | 64 | 0.0 | 1.0 | 0.00 | 0.00 | 0.00 | 49 | 997.7 |
| 20260901223157 | 99 | 59 | 0.0 | 1.0 | 0.00 | 0.00 | 0.00 | 48 | 997.6 |
| 20260901221655 | 99 | 53 | 0.0 | 3.0 | 0.00 | 0.00 | 0.00 | 48 | 997.7 |
| 20260901220154 | 99 | 78 | 0.0 | 2.0 | 0.00 | 0.00 | 0.00 | 46 | 997.7 |
| 20260901214655 | 100 | 139 | 0.0 | 1.0 | 0.00 | 0.00 | 0.00 | 47 | 997.9 |
| 20260901213159 | 100 | 35 | 0.0 | 2.0 | 0.00 | 0.00 | 0.00 | 43 | 997.8 |
| 20260901211656 | 99 | 105 | 0.0 | 2.0 | 0.00 | 0.00 | 0.00 | 49 | 997.8 |
| 20260901210159 | 98 | 101 | 0.0 | 3.0 | 0.00 | 0.00 | 0.00 | 52 | 997.8 |
| 20260901204656 | 99 | 16 | 0.0 | 2.0 | 0.00 | 0.00 | 0.00 | 46 | 997.9 |
| 20260901203155 | 99 | 76 | 0.0 | 3.0 | 0.00 | 0.00 | 0.00 | 49 | 998.0 |
| 20260901200158 | 99 | 217 | 1.0 | 4.0 | 0.00 | 0.00 | 0.00 | 47 | 998.4 |
| 20260901184655 | 97 | 88 | 0.0 | 3.0 | 0.00 | 0.00 | 0.00 | 54 | 999.3 |
| 20260901183155 | 95 | 227 | 1.0 | 6.0 | 0.00 | 0.00 | 0.00 | 52 | 999.4 |
| 20260901181654 | 95 | 171 | 3.0 | 8.0 | 0.00 | 0.00 | 0.00 | 51 | 999.5 |
| 20260901180154 | 96 | 215 | 2.0 | 4.0 | 0.00 | 0.00 | 0.00 | 52 | 999.6 |
| 20260901174657 | 95 | 101 | 0.0 | 4.0 | 0.00 | 0.00 | 0.00 | 54 | 999.8 |
| 20260901173155 | 93 | 187 | 0.0 | 5.0 | 0.00 | 0.00 | 0.00 | 59 | 1000.1 |
| 20260901171657 | 91 | 103 | 0.0 | 8.0 | 0.00 | 0.00 | 0.00 | 62 | 1000.0 |
| 20260901164657 | 89 | 20 | 1.0 | 4.0 | 0.00 | 0.00 | 0.00 | 64 | 1000.6 |
| 20260901163155 | 88 | 343 | 1.0 | 6.0 | 0.00 | 0.00 | 0.00 | 64 | 1000.7 |
| 20260901161658 | 88 | 93 | 1.0 | 4.0 | 0.00 | 0.00 | 0.00 | 67 | 1000.8 |
| 20260901160154 | 88 | 313 | 0.0 | 4.0 | 0.00 | 0.00 | 0.00 | 65 | 1000.8 |
| 20260901153153 | 87 | 201 | 0.0 | 4.0 | 0.00 | 0.00 | 0.00 | 70 | 1001.1 |
| 20260901151653 | 86 | 307 | 0.0 | 3.0 | 0.00 | 0.00 | 0.00 | 71 | 1000.9 |
| 20260901150154 | 84 | 152 | 0.0 | 3.0 | 0.00 | 0.00 | 0.00 | 74 | 1001.2 |
| 20260901143153 | 82 | 226 | 0.0 | 2.0 | 0.00 | 0.00 | 0.00 | 77 | 1001.0 |
| 20260901141700 | 81 | 226 | 0.0 | 1.0 | 0.00 | 0.00 | 0.00 | 78 | 1001.1 |
| 20260901140153 | 80 | 93 | 0.0 | 2.0 | 0.00 | 0.00 | 0.00 | 81 | 1000.9 |
| 20260901134653 | 79 | 154 | 0.0 | 1.0 | 0.00 | 0.00 | 0.00 | 85 | 1000.9 |